Tracking 18780 objects as of 29-July-2017
HD Live streaming from Space Station
objects crossing your sky now
MAYAK may become the brightest orbital object in the night sky!
Where is MAYAK now?
How to spot MAYAK

OPS 6431

Track OPS 6431 now!
10-day predictions
OPS 6431 is classified as:


NORAD ID: 8818
Int'l Code: 1976-038A
Perigee: 393.9 km
Apogee: 1,531.7 km
Inclination: 63.3 °
Period: 104.2 minutes
Semi major axis: 7333 km
RCS: Unknown
Launch date: April 30, 1976
Source: United States (US)
Launch site: AIR FORCE WESTERN TEST RANGE (AFWTR)
Your satellite tracking list
Your tracking list is empty





NASA's NSSDC Master Catalog

Two Line Element Set (TLE):
1 08818U 76038A   17116.81397469 0.00002000  00000-0  14830-3 0    06
2 08818  63.2545  41.3945 0775730 139.2034 220.7966 13.82327947    07
Source of the keplerian elements: McCants